Mitgliederbereich
Imprimable
Wissant, 09-10/09/2017, BEL - Trail de la Côte d'Opale
Liste der Berichte > 24km - Ergebnis
Suche: Seite: [1] 2 3
1275 Eingaben
 
Les réclamations ne sont plus acceptées, les résultats sont considérés comme définitifs.
Kategorie
PosNrLicenceNameAgeNATMannschaftZeitTkmMoy.PlatzNameStadt
1.6508MAHIA Sebastien31BELRUN ATTITUDE GE1:36:344:02 14.911sem
2.6361MARTINEZ Rémi27FRA1:39:364:09 14.462sem
3.6290LEKEU Frédérick36BEL1:41:234:14 14.203sem
4.6120HERMAN Thomas41FRAVALENCIENNES TR1:42:304:17 14.051v1m
5.7205CAUUET Olivier36FRA1:42:544:18 14.004sem
6.7114LAFORGUE Emmanuel41FRA1:43:514:20 13.872v1m
7.6316DE GROOTE Nicolas36FRALILLE METROPOLE1:44:574:23 13.725sem
8.7109BREUVART Martin39FRA1:45:124:23 13.696sem
9.6429DOBY Clement34FRA1:45:244:24 13.667sem
10.6076PIETTE Frederic38BELBSE1:45:494:25 13.618sem
11.6049MAQUIGNON Sacha18FRABLANC NEZ TRIAT1:46:134:26 13.561jum
12.6137HARLÉ Alexis36FRA1:46:214:26 13.549sem
13.6099DARTE Eric53FRAOCAN1:48:304:32 13.271v2m
14.6424LHEUREUX François36BEL1:49:354:34 13.1410sem
15.6769DEVENYNS Stéphane38BELQUINTEAM1:49:504:35 13.1111sem
16.6759CHARLES Franck45FRA1:51:014:38 12.973v1m
17.6255GODELAINE Stéphane36BEL1:51:284:39 12.9212sem
18.7553BOUVIER Robin18FRA1:51:294:39 12.922jum
19.7267CAMBIER Hugo21FRA1:51:584:40 12.8613sem
20.6344YAHIAOUI Sidi Mohammed41FRAFSGT DAC DENAI1:52:084:41 12.844v1m
21.6004LANOY Stéphane431:52:244:41 12.815v1m
22.6144PIASECKI Romain29FRA1:52:254:42 12.8114sem
23.6851TESSE Sebastien46BELTRIGT1:52:414:42 12.786v1m
24.7040HENRY William44FRAOGS1:53:004:43 12.757v1m
25.7392BOISLEUX Arthur24FRATEAM MYRUNNING1:53:174:44 12.7115sem
26.7045SULKOWSKI Laurent43FRAJOGGING CLUB LA1:53:174:44 12.718v1m
27.7041DHELLEMMES Hugues47FRARUN ASCQ1:53:304:44 12.699v1m
28.6102PIERRU Jérôme40FRATRIATHLON CLUB 1:54:374:47 12.5610v1m
29.7069FVINCENT Cindy43FRA1:54:404:47 12.561v1f
30.6824BEAUMONT Jerome44FRAOGSA1:55:054:48 12.5111v1m
31.7252SPREUX David36BEL1:55:174:49 12.4916sem
32.6243B'AHEU Romain36FRAAC OUTREAU1:55:224:49 12.4817sem
33.7593TONEGUZZO Julien34FRATEAM GRAVELINES1:55:444:50 12.4418sem
34.6181DELOISON Cyril41FRACAA1:55:554:50 12.4212v1m
35.7437LEFEBVRE Alexandre37FRAALINHA1:56:134:51 12.3919sem
36.6734PROUVOST Maxime38FRAPOUR TOUS LES T1:56:144:51 12.3920sem
37.6357LIBEER Matthieu39FRA1:56:154:51 12.3921sem
38.7229FORTMANS Stephanie40BELMUSCLETTE1:56:304:52 12.362v1f
39.6352MOUQUIN Olivier32FRA1:56:404:52 12.3422sem
40.7481MALIAR Marc50FRAUSVA1:56:544:53 12.322v2m
41.7462BRULEZ Thomas36FRA1:56:554:53 12.3223sem
42.6944DELEBARRE Matthieu39FRA1:56:564:53 12.3224sem
43.7566GILLET David36BELRUNANDSMASH1:56:594:53 12.3125sem
44.6237PETITPREZ Stephane41FRA1:57:024:53 12.3113v1m
45.6173CHARLEMAGNE Lionel32FRA1:57:164:54 12.2826sem
46.7037GRIGIS Loic37BELJCPMF FLV1:57:274:54 12.2627sem
47.6544GORIS Cedric43FRAA S DUNKERQUE P1:57:284:54 12.2614v1m
48.6042AUCHART Mickaël42FRACPSS CARVIN1:57:414:55 12.2415v1m
49.7118LEMAIRE Franck38FRA1:57:444:55 12.2328sem
50.6358LEFEBVRE Antoine42FRA1:57:554:55 12.2116v1m
51.7362DE JONG Daniel64BELTEODO TEMPO1:57:564:55 12.211v3m
52.6016DESOMBRE Damien35FRA1:58:354:57 12.1429sem
53.7218D'AFFNAY Jean-Francois38FRA1:58:404:57 12.1430sem
54.7259ABSIL Fabrice45BEL1:58:434:57 12.1317v1m
55.6269GORRIQUER Guillaume26FRA1:58:444:57 12.1331sem
56.6527CORBISIER Nicolas35FRACPSS CARVIN1:58:584:58 12.1032sem
57.6034WOLAK Arnaud34FRA1:59:124:58 12.0833sem
58.6045SCHMETZ Bernard53BELRUNNER'S BERNEA1:59:274:59 12.063v2m
59.6814DUBOIS Anthony32FRACE ALSTOM1:59:314:59 12.0534sem
60.6125URBAIN Baudouin46FRA1:59:364:59 12.0418v1m
61.6318AGOSTINO Antonio47ITALES ÉCLATÉS PÉR1:59:545:00 12.0119v1m
62.6863SINGER Christophe43FRA1:59:555:00 12.0120v1m
63.6121DELIEGE Hugues36FRA1:59:565:00 12.0135sem
64.6165DAEL Michel52FRAUS MARQUETTE2:00:015:01 12.004v2m
65.6815BASSEUX Paul56FRARCA ARRAS2:00:045:01 11.995v2m
66.7406JOLIE Stan51BELACKO2:00:265:02 11.966v2m
67.6492FVANHALLE Anja45BEL2:00:285:02 11.953v1f
68.6975BIGOT François36FRA2:00:295:02 11.9536sem
69.6811MILLE Xavier33FRABOURTHES RUNNIN2:00:425:02 11.9337sem
70.6951TOULEMONDE Anthony32FRA2:00:465:02 11.9238sem
71.7496HOSTYN Christophe41FRA2:00:515:03 11.9221v1m
72.7428CHAMPENOIS Christophe36FRA2:01:195:04 11.8739sem
73.7447TALPAERT Maxime38FRA2:01:495:05 11.8240sem
74.7082CHEVALIER Constant22FRATEAM FOLPERDRIX2:02:035:06 11.8041sem
75.6376COQUET Jonathan39FRACOURIR A ABBEVI2:02:075:06 11.7942sem
76.6394FPALENZUELA Delphine35FRA2:02:175:06 11.781sef
77.6157FILLY Sebastien39FRA2:02:305:07 11.7643sem
78.6023DUMORTIER Sébastien38FRAEUROTUNNEL2:02:515:08 11.7244sem
79.7030MIRMONT Rémi35FRAGENDARMERIE2:02:575:08 11.7145sem
80.6511MARCOURT Adrien28FRA2:03:075:08 11.7046sem
81.6223VANDENKERCKHOVE Hugues46FRALES COURANTS D'2:03:395:10 11.6522v1m
82.7276LOPEZ Benjamin33FRA2:03:435:10 11.6447sem
83.6534BOUHASSOUN Mehdi44FRAACOUTREAU2:03:445:10 11.6423v1m
84.6973GOMEL Maxime29FRA2:03:485:10 11.6348sem
85.7215SAMAIN Baptiste44FRATAWAT2:03:585:10 11.6224v1m
86.6267DUPONT Dimitri42BEL2:04:075:11 11.6025v1m
87.7100BOCQUET Rudolph39DECATHLON ST-MA2:04:335:12 11.5649sem
88.6024BEAUCAMP José52FRA2:04:425:12 11.557v2m
89.6204FPAULET Caroline37FRA2:04:555:13 11.532sef
90.6375JOURNÉ Sébastien39FRA2:05:195:14 11.4950sem
91.7216SAMAIN Julien45FRATAWAT2:05:275:14 11.4826v1m
92.6730VAHÉ Léo25FRA2:05:305:14 11.4751sem
93.6483MEERSCHAUT Frederic36BEL2:05:365:14 11.4752sem
94.6852VANGRUNDERBEEK Sebastian33BEL2:06:005:15 11.4353sem
95.6070KLAUER Jonathan31BELRUNNING TEAM CO2:06:025:16 11.4354sem
96.7310LESNE Benoit45BELCOACH RUNNING2:06:065:16 11.4227v1m
97.6810CARLU Francois37FRABOURTHES2:06:065:16 11.4255sem
98.7334MOGIN Laurent48FRA2:06:075:16 11.4228v1m
99.7338STILITE Yoann23BELTHEODO TEMPO2:06:075:16 11.4256sem
100.7534DOURDIN Nicolas34FRA2:06:155:16 11.4157sem
101.7302DENECKER Nicolas37FRA2:06:155:16 11.4158sem
102.6200FOULON Sylvain49FRA2:06:235:16 11.3929v1m
103.6931TIBERGHIEN Matthieu39FRA2:06:255:17 11.3959sem
104.7178GUILLON Maxime31FRA2:06:295:17 11.3960sem
105.6077BALLARD Jean-Christophe38BELGEMBLOUX TRIATH2:07:055:18 11.3361sem
106.6479FRICHARD Gaelle33FRADENAIN2:07:105:18 11.323sef
107.7048FBACHY Francoise44FRAOSML LOMME2:07:115:18 11.324v1f
108.6048VIEILLARD Benoit43FRA2:07:185:19 11.3130v1m
109.7225MATHIEU Frederic44FRA2:07:185:19 11.3131v1m
110.6805BÉAREZ Maxime41BEL2:07:245:19 11.3032v1m
111.7573MORIN Antoine27FRA2:07:255:19 11.3062sem
112.6128MAETZ Laurent34FRA2:07:275:19 11.3063sem
113.6189DEGUISNE Frederic44FRA2:07:315:19 11.2933v1m
114.6949DELCOURT Romuald41FRA2:07:375:20 11.2834v1m
115.7126GILQUAIN Patrick45FRAETC2:07:425:20 11.2835v1m
116.6115CHARLIER Guillaume32FRAOCAN2:07:445:20 11.2764sem
117.7228CHEMSI Jaoid39FRATRIGT2:07:455:20 11.2765sem
118.7539DHAENENS Gilles41FRA2:07:545:20 11.2636v1m
119.6929LEPERON Christophe44FRA2:07:575:20 11.2637v1m
120.7455DEVIN Jordane31FRATDR CRAPONNE2:08:095:21 11.2466sem
121.6725TASSOU David48FRA2:08:125:21 11.2338v1m
122.7285LETURCQ Fabien37BELS.P.H.O2:08:265:22 11.2167sem
123.6103CHENAL Thomas54FRA2:08:315:22 11.218v2m
124.7096HOLVOET Marc57FRA2:08:395:22 11.199v2m
125.6018FAVIERE Aurélien31FRA2:08:405:22 11.1968sem
126.7426BOCKLANDT Julian35BELTHEODO TEMPO2:08:415:22 11.1969sem
127.6974LEPOUTRE Vincent45BELSPORT EVASION2:08:445:22 11.1939v1m
128.6984THARIN Maxime33FRA2:08:485:22 11.1870sem
129.7132BOUCHE Cedric38FRA2:08:495:23 11.1871sem
130.7135GASPARD Cédric41FRA2:08:515:23 11.1840v1m
131.7173LECONTE Olivier45FRA2:08:535:23 11.1741v1m
132.6726VANDEWALLE Aurélien31BEL2:08:595:23 11.1772sem
133.7353DEREUME Pascal55BELTHEODO TEMPO2:09:015:23 11.1610v2m
134.7226ROBIN Adrien29FRA2:09:065:23 11.1673sem
135.6794BODIN Frederic41FRAVILLENEUVE D'AS2:09:065:23 11.1642v1m
136.7325FROUX Alice35FRA2:09:095:23 11.154sef
137.6963FURMANIAK Alexis31FRA2:09:235:24 11.1374sem
138.6428MOULY Stephane48FRA2:09:265:24 11.1343v1m
139.6530FABRICE Fusarelli55FRALES AGEUX2:09:365:24 11.1111v2m
140.7590FGOBAILLE Marie37FRA2:09:465:25 11.105sef
141.6001MULLIEZ Amaury402:09:465:25 11.1044v1m
142.6495HUYS Urbain57BEL2:09:525:25 11.0912v2m
143.6111FBRO Berenice38FRALES Z AMIS COUR2:09:525:25 11.096sef
144.6066ROISSE Sebastien38BELÉCLATES PERUWEL2:09:575:25 11.0875sem
145.7235COUSIN Benoit40FRASTADE LONGUENES2:10:035:26 11.0745v1m
146.6171DEREGNAUCOURT Bruno53FRA2:10:065:26 11.0713v2m
147.7360NORMAND Gonzague38FRAGRAVITY RUNNING2:10:095:26 11.0776sem
148.6395GRESSIER Antoine37FRA2:10:155:26 11.0677sem
149.6591CARON Nicolas41FRA2:10:265:27 11.0446v1m
150.7439SAUVETRE Stephane47FRAASL BOUVIGNIES2:10:365:27 11.0347v1m
151.6245CHIARUTTINI Jean45FRAASL BOUVIGNIES2:10:365:27 11.0348v1m
152.7279SOENS Matthieu35BEL2:10:445:27 11.0278sem
153.6452RADOT Thomas39FRABERLIÈRE2:10:455:27 11.0179sem
154.7344DURIEZ Arnaud40FRARUNASCQ2:10:515:28 11.0149v1m
155.6050MARKEY Yves48BELLES ÉCLATÉS DE 2:10:515:28 11.0150v1m
156.7289FORTIN Tanguy28FRA2:10:525:28 11.0080sem
157.6206FMOREL Sabrina39FRAMAUBEUGE MARATH2:10:525:28 11.007sef
158.7322HIREL Olivier43FRA2:10:595:28 10.9951v1m
159.6478BERTRAND Frederic47BEL2:11:065:28 10.9852v1m
160.7485ROMMELARD Remi32FRA2:11:095:28 10.9881sem
161.6286GRANDMAISON Grégory35BELBOUBIET TEAM2:11:205:29 10.9782sem
162.6306PLUQUET Franck43FRA2:11:285:29 10.9553v1m
163.7467MELEUC Ludovic32FRA2:11:355:29 10.9483sem
164.6420FGODELAINE Audrey31BEL2:11:365:29 10.948sef
165.7315MONCOUSIN Fabien38BEL2:11:385:30 10.9484sem
166.7533OLBRECHTS Nissim34BEL2:11:385:30 10.9485sem
167.7443TRENTESAUX Bastien39FRA2:11:405:30 10.9486sem
168.6087CHAPUIS Fabien47BELECLATES PERUWEL2:11:545:30 10.9254v1m
169.6791CHERFY Franck41FRA2:12:125:31 10.8955v1m
170.6749DUMETZ Pascal49FRA2:12:165:31 10.8956v1m
171.7552FBOUVIER Sophie44FRA2:12:175:31 10.895v1f
172.6275MOLINARD Vincent37FRA2:12:205:31 10.8887sem
173.6161WATHELET Gilles34BELTEAM LINCÉ2:12:245:31 10.8888sem
174.6594DELESALLE Edouard34FRA2:12:305:32 10.8789sem
175.6270DELISLE Stéphane41FRA2:12:315:32 10.8757v1m
176.6870SMEKTALA Antoine33FRA2:12:315:32 10.8790sem
177.6328BAUWENS Marcel57BELJOGING CLUB BAU2:12:375:32 10.8614v2m
178.6421MARTINAGE Lionel51BELPOTOSROSES2:12:395:32 10.8615v2m
179.6264DUWELZ David42FRASPHO2:12:395:32 10.8658v1m
180.6982SAMAIN Thibault40FRATAWAT2:12:405:32 10.8659v1m
181.6579OBERT Thierry52FRA2:12:425:32 10.8516v2m
182.6134SAUTEREAU Franck49FRAPASS RUNNING2:12:445:32 10.8560v1m
183.7474DUFAUX Raphaël50BELJCPMF FLV2:12:515:33 10.8417v2m
184.7339FVERMEULEN Delphine44FRATRIGT2:12:585:33 10.836v1f
185.6981FAIDHERBE Remi30FRALES BALTRINGUES2:13:015:33 10.8391sem
186.6292LECLERCQ Julien29BEL2:13:025:33 10.8292sem
187.6365COGNEAUX Eric43FRAMAUBEUGE MARATH2:13:055:33 10.8261v1m
188.6324COLLIN Pierre47BEL2:13:095:33 10.8262v1m
189.6135HORAK Stephane48FRARIO TINTO2:13:125:33 10.8163v1m
190.6211VERSTRAELEN Benoît40BEL2:13:195:34 10.8064v1m
191.6822FSPINEUX Sophie45BELJCPMF FLV2:13:355:34 10.787v1f
192.6130FBOULOGNE Sophie39FRA2:13:395:35 10.789sef
193.6748BRIDOUX Didier59FRAASUD JOGGING2:13:405:35 10.7718v2m
194.6773STERNADEL Maxime37FRA2:13:415:35 10.7793sem
195.6337DA COSTA Eric37FRABLARINGHEM TRAI2:13:475:35 10.7694sem
196.7094JAMIN Philippe40BELJOG'IN ATTITUDE2:13:595:35 10.7565v1m
197.6156DALLE Edouard28FRA2:14:005:35 10.7595sem
198.6445MARTIN Jean François52FRAAS LFB2:14:045:36 10.7419v2m
199.6448BUICHE Arnaud47FRAAS LFB2:14:045:36 10.7466v1m
200.6393FDIERCKENS-VANRYSSEL Kattell42FRAUS MARQUETTE2:14:075:36 10.748v1f
201.6993TURGOT Vincent48FRALUTTI TEAM2:14:075:36 10.7467v1m
202.7460LÉONARD Stéphane44BEL2:14:195:36 10.7268v1m
203.6002FARNWORTH Graeme512:14:265:37 10.7120v2m
204.7354FORTRY Georges37FRAHERLIES RANDO R2:14:345:37 10.7096sem
205.6105HEMERY Francois36FRA2:14:375:37 10.7097sem
206.7483VANDERSLUYS Sébastien39FRA2:14:485:37 10.6898sem
207.6854COLEMONTS Gilles44BELRUNNING CLUB FE2:14:545:38 10.6769v1m
208.6431BEAUDEL Philippe40FRA2:14:575:38 10.6770v1m
209.6141FBRABANT Delphine41FRA2:14:575:38 10.679v1f
210.6529MASSION Paul49BELCOUR'JET FARCIS2:14:595:38 10.6771v1m
211.7187FLEMAIRE Estelle51FRAECLA LANDAS2:15:005:38 10.671v2f
212.6986GOSSELIN Flovic40FRA2:15:035:38 10.6672v1m
213.7019MARZOLF Harald37FRA2:15:055:38 10.6699sem
214.7123FAGNESSEN Anne52BEL2:15:055:38 10.662v2f
215.6260COISNE Edouard31FRAMOFFI2:15:055:38 10.66100sem
216.7035COUROUBLE Remi53FRALES Z'AMIS COUR2:15:165:39 10.6521v2m
217.6855GAUDEFROY Pascal46FRA2:15:245:39 10.6473v1m
218.6813FOLIX Cheila54FRACALESTIENNE2:15:255:39 10.633v2f
219.6812DUMONT Patrice42FRA2:15:295:39 10.6374v1m
220.7111VANOVERSCHELDE Lionel34BEL2:15:325:39 10.63101sem
221.7162DEMAREY Laurent44FRA2:15:395:40 10.6275v1m
222.6341DRANCOURT Aurelien38FRA2:15:425:40 10.61102sem
223.6051LEFEVRE Antoine39FRA2:15:495:40 10.60103sem
224.6350VANDEN-WILDENBERG Jérémy37FRA2:15:505:40 10.60104sem
225.6487FASSIN Jean François36BEL2:16:115:41 10.57105sem
226.6232CHEVALLIER Yann46FRA2:16:145:41 10.5776v1m
227.7015CHARBONNEAU Thomas39FRA2:16:245:41 10.56106sem
228.6222GRENIER Franck44FRA2:16:365:42 10.5477v1m
229.6860BAULOYE Geoffrey35BELTRAILERS DES FA2:16:375:42 10.54107sem
230.7337FNEMERY Geraldine38FRAMYRUN2:16:395:42 10.5410sef
231.6112LECOCQ Alain53FRAEDF2:16:475:42 10.5322v2m
232.6438LEGRY Nicolas30FRA2:16:525:43 10.52108sem
233.6532LEPAN Guillaume40FRA2:16:555:43 10.5278v1m
234.7511MORIVAL Jimmy43FRA2:16:585:43 10.5179v1m
235.6148CASTILLE Damien24BEL2:17:035:43 10.51109sem
236.6362BORSUS Charly54BELLES APÉROS DU M2:17:085:43 10.5023v2m
237.7350FELLEBOUDT Delphine40BELLES APÉROS DU M2:17:085:43 10.5010v1f
238.6461SAUVAGE Joanny44BELARCH2:17:095:43 10.5080v1m
239.7255MYLLE Cedric34FRA2:17:245:44 10.48110sem
240.6998COISNE Cesar33FRA2:17:275:44 10.48111sem
241.6458FJISSELIN Isabelle43FRAGHYVELDE2:17:275:44 10.4811v1f
242.6729FLOTHAIRE Catherine30BEL2:17:285:44 10.4811sef
243.6826REYTINAS Quentin32FRA2:17:375:45 10.46112sem
244.6389VITOUX Cyrille30FRA2:17:385:45 10.46113sem
245.6356VAN DYK Damien42BELTEMPLEUVE2:17:405:45 10.4681v1m
246.6323BEASSE Guillaume33FRA2:17:445:45 10.46114sem
247.7269FBLOMMAERT Christine49FRA2:17:485:45 10.4512v1f
248.7356AUTPHENNE Michael27BEL2:17:485:45 10.45115sem
249.7200ENGRAND Boris40FRA2:17:545:45 10.4482v1m
250.6519FINSTALLÉ Johanne42BELESM BELGIUM2:17:565:45 10.4413v1f
251.7181DHERBIGNY Louis32FRA2:17:585:45 10.44116sem
252.7299BONNART Pierre38FRA2:18:015:46 10.43117sem
253.6373RITEL Olivier46FRA2:18:025:46 10.4383v1m
254.6722TOULEMONDE François-Thierry44FRA2:18:145:46 10.4284v1m
255.7366LEPOUTRE Emile44FRARUN ASCQ2:18:255:47 10.4085v1m
256.7131DIERICKX Olivier43FRARUNNERS DE BOND2:18:295:47 10.4086v1m
257.7482DENIS Ludovic39FRA2:18:375:47 10.39118sem
258.6113FLECLERCQ Elisabeth44FRATRIATHLON AVION2:18:465:47 10.3814v1f
259.6766LANTOINE Pierre36FRARC ARRAS2:18:505:48 10.37119sem
260.6388VITOUX Thomas36FRA2:18:515:48 10.37120sem
261.7172ROOBAERT Michel31BEL2:18:545:48 10.37121sem
262.7161GOETGELUCK Arnaud24FRA2:18:555:48 10.37122sem
263.7417FDEVOS Celine34FRA2:18:555:48 10.3712sef
264.7104GHESQUIERE David38BELETM2:18:565:48 10.36123sem
265.6832FEYMANN Sarah31FRA2:19:025:48 10.3613sef
266.6188COURBET Ludovic45FRA2:19:035:48 10.3687v1m
267.6198DENEUX Remi42FRACAA2:19:085:48 10.3588v1m
268.6379FDURAND Virginie47FRACOURIR A ABBEVI2:19:085:48 10.3515v1f
269.7296JOUGLEUX Thibault18FRA2:19:115:48 10.353jum
270.6427TONDEUR Jean-Pierre61BEL2:19:135:49 10.342v3m
271.6644POTTIER Guillaume23FRALES TRAILS LENT2:19:165:49 10.34124sem
272.7572SOGALOW Jean-Marc50FRA2:19:285:49 10.3324v2m
273.6543VERSTICHEL Alain55BELNÉANT2:19:325:49 10.3225v2m
274.7314FMAKSYMOWICZ Laurence46FRA2:19:345:49 10.3216v1f
275.6248DESPREZ Dominique65FRACPSS CARVIN2:19:355:49 10.323v3m
276.6541LEFÈVRE Valentin41FRA2:19:385:50 10.3189v1m
277.6959FBOUY Alizee28FRALMC2:19:445:50 10.3114sef
278.6792MULOCHOT Maxime32FRA2:19:505:50 10.30125sem
279.6011DETHOOR Dominique57DECATHLON ST-MA2:19:515:50 10.3026v2m
280.7568WALLEMACQ Thierry37BEL2:19:565:50 10.29126sem
281.7221OCTAU Baptiste29FRAIRON VIKING 762:19:585:50 10.29127sem
282.6118MARCY Julien35FRA2:20:025:51 10.28128sem
283.7311COGEZ Benjamin39FRA2:20:105:51 10.27129sem
284.7166FMAMZED Saskia34FRA2:20:125:51 10.2715sef
285.6384HENSEN Stephane44FRALES MOTIVÉS DU 2:20:135:51 10.2790v1m
286.6308SEILLE Frederic54FRA2:20:145:51 10.2727v2m
287.7355VAN ENDE Jérémie41BEL2:20:265:52 10.2591v1m
288.6797LINDER Mathieu39FRA2:20:285:52 10.25130sem
289.6017VIGNAU Paul-Antoine26FRA2:20:295:52 10.25131sem
290.7321DURIEZ Olivier35FRA2:20:295:52 10.25132sem
291.7323OCHIN Guillaume45FRA2:20:305:52 10.2592v1m
292.7331BRICHE Cedric34FRALES COUREURS DE2:20:435:52 10.23133sem
293.7220CAQUANT Vianney33FRA2:20:495:53 10.23134sem
294.6266FERY Etienne49BELRAPTOR TEAM2:20:545:53 10.2293v1m
295.6153LIBOIS Marc43BELRAPTOR TEAM2:20:545:53 10.2294v1m
296.7578FVITET Morgane37FRA2:21:085:53 10.2016sef
297.6807DANJOU Michael44FRA2:21:115:53 10.2095v1m
298.6574DUMONT Stéphane42FRA2:21:125:53 10.2096v1m
299.6576DEROUSSEAU Gregory46FRA2:21:125:53 10.2097v1m
300.6329PIERRU Sebastien38FRA2:21:165:54 10.19135sem
301.6936BULOT Samuel44FRA2:21:175:54 10.1998v1m
302.6731VIÉ Nicolas29FRA2:21:275:54 10.18136sem
303.6459JOSSELIN Stéphane44FRAGHYVELDE2:21:315:54 10.1899v1m
304.6126VANNEROT Arnaud33FRA2:21:325:54 10.17137sem
305.6482DESBONNETS Jeremy39FRARUNNERS DE BOND2:21:385:55 10.17138sem
306.6132PETITJEAN David42FRA2:21:405:55 10.17100v1m
307.7502THULLIEZ Gregory37FRA2:21:435:55 10.16139sem
308.7352FORTIN Etienne44FRA2:21:435:55 10.16101v1m
309.6402NOE Edouard45FRA2:21:445:55 10.16102v1m
310.6573SOUDAIN Nicolas34FRA2:21:505:55 10.15140sem
311.7490GREGOIRE Thierry45FRAETHIAS RUNNING2:21:555:55 10.15103v1m
312.7487PIRE Arnaud35BELETHIAS RUNNING2:21:555:55 10.15141sem
313.7423FDEPIREUX Nathalie41BELETHIAS RUNNING2:21:555:55 10.1517v1f
314.6787RENARD Mathias43FRA2:21:585:55 10.14104v1m
315.6258DE ST SEINE Ben41FRA2:21:585:55 10.14105v1m
316.6590MILLOT Hugues35FRA2:22:075:56 10.13142sem
317.6983OURDOUILLIE Ludovic39FRAASSOCIATION AID2:22:135:56 10.13143sem
318.6584SENECHAL Kevin30FRA2:22:135:56 10.13144sem
319.6221WELLEKENS Eric57BEL2:22:275:57 10.1128v2m
320.6067FONTAINE Francois39FRA2:22:435:57 10.09145sem
321.7265SORANNO Benjamin37FRA2:22:505:58 10.08146sem
322.6942FLAMENT Michael28FRA2:22:535:58 10.08147sem
323.6575LECAT Daniel55BELACCROS 5 CLOCHE2:22:585:58 10.0729v2m
324.6652DEFOSSEZ Jerome47FRA2:23:035:58 10.07106v1m
325.6463FLESOT Delphine48DECATHLON ST-MA2:23:045:58 10.0718v1f
326.6403CHARDIN Michel48FRA2:23:135:59 10.06107v1m
327.6756DEVULDER Michael44FRACROSS DUATHLON2:23:245:59 10.04108v1m
328.6039FLEDROLE Mélanie40FRAVALENCIENNES TR2:23:275:59 10.0419v1f
329.6040FGRARD Ingrid44FRAVALENCIENNES TR2:23:275:59 10.0420v1f
330.6819DE WAELE Olivier39BEL2:23:275:59 10.04148sem
331.7281GILBERT Etienne42BEL2:23:315:59 10.03109v1m
332.7233VAN NIEUWENHUYZE Eric49BELSELLARONDATRAIL2:23:335:59 10.03110v1m
333.7386FOUCART Mike40BEL2:23:335:59 10.03111v1m
334.7013DECANTER Henri32FRA2:23:376:00 10.03149sem
335.7130VOREAUX Christophe53FRACOURIR A MERVIL2:23:426:00 10.0230v2m
336.7263LAHAYE Thibaut22BEL2:24:036:01 10.00150sem
337.6178KODER Franck52FRALA FOULÉE PONT 2:24:156:01 9.9831v2m
338.6278GROSJEAN Jean-François46BELJCPMFFLV2:24:196:01 9.98112v1m
339.7425RANCE Thomas46FRA2:24:216:01 9.98113v1m
340.6412KLEINKENBERG Luc51BELRUN4FUN HAVELAN2:24:226:01 9.9832v2m
341.6796DUPILET Jeremie38FRA2:24:256:02 9.97151sem
342.7251VASSEUR Benjamin26FRA2:24:266:02 9.97152sem
343.6059TRICHARD Thierry49FRA2:24:276:02 9.97114v1m
344.7120PANI Fabien43FRAQUESNOY PAR TOU2:24:376:02 9.96115v1m
345.6372GENETTE Sébastien45FRA2:24:426:02 9.95116v1m
346.7231BEUSCART Benjamin33FRA2:24:436:02 9.95153sem
347.6159FROUSSEL Emilie43FRA2:24:436:02 9.9521v1f
348.7368DOLEANS Yann42FRA2:24:516:03 9.94117v1m
349.6369RINGEVAL Olivier40FRA2:24:586:03 9.93118v1m
350.7547MARQUE Samuel36FRACRUFC2:24:596:03 9.93154sem
351.6104BOSSUT Vianney45FRA2:25:016:03 9.93119v1m
352.6310DEGALLAIX Frederic42FRA2:25:056:03 9.93120v1m
353.6252COCHEZ Pierre-Antoine29FRA2:25:066:03 9.92155sem
354.6932GIRARD Charles-Antoine33FRA2:25:126:03 9.92156sem
355.6149BRUNHES Thomas44FRA2:25:156:04 9.91121v1m
356.7526FTHERY Christine49FRASO CALAIS ATHLÉ2:25:236:04 9.9122v1f
357.6642DESCAMPS Antoine26FRA2:25:246:04 9.90157sem
358.6856SALEMBIER Ludovic46FRA2:25:256:04 9.90122v1m
359.6332FDOMINGUES Nathalie54FRA2:25:306:04 9.904v2f
360.6507COSTANZO Erasmo34BELBOUFFIOLS2:25:596:05 9.86158sem
361.6501CHEVALIER Mickael35FRA2:26:076:06 9.86159sem
362.6491FDE FEYTER Caroline58BELACKO2:26:146:06 9.855v2f
363.6274SINEYEN Steeven39FRA2:26:186:06 9.84160sem
364.6416FSERGENT Elodie45FRAAS LFB2:26:216:06 9.8423v1f
365.6241MARTEL Loïc34FRATEAM GRAVELINES2:26:236:06 9.84161sem
366.6000ROBERT David442:26:256:07 9.83123v1m
367.6820LAIGLE Olivier46FRA2:26:266:07 9.83124v1m
368.7459FBERTINCHAMPS Julie36FRAMY RUN2:26:296:07 9.8317sef
369.6733COULON Pierre40FRA2:26:356:07 9.82125v1m
370.6311VANDERBAUWEDE Felix41FRA2:26:376:07 9.82126v1m
371.7033TENRET Hugues54BELJCHSH2:26:426:07 9.8233v2m
372.6272FFOURCROY Fanny43FRA2:26:436:07 9.8224v1f
373.7465JAUQUET Daniel52BELJCHSH2:26:456:07 9.8134v2m
374.6516GRIBOVAL Christian58FRA2:26:506:08 9.8135v2m
375.7264ROHART Louis-Andre42FRA2:26:566:08 9.80127v1m
376.7457FSMIRNAPOULO Mélanie25FRA2:26:566:08 9.8018sef
377.7594VERHEGGEN Ludovic37BELA TROIS ON Y VA2:26:586:08 9.80162sem
378.6480PAQUET Nicolas38FRA2:27:006:08 9.80163sem
379.6436MEYS Claude51BELMA2:27:086:08 9.7936v2m
380.7508VAN HASSELT Dominique48BEL2:27:116:08 9.78128v1m
381.7190LABBE Quentin28FRA2:27:136:09 9.78164sem
382.6454FMICHAUX Wivine36BEL2:27:166:09 9.7819sef
383.7427DEWULF Grégory49BELACCROS 5 CLOCHE2:27:166:09 9.78129v1m
384.7540CLAISSE Francois46FRAGRAVITY2:27:196:09 9.78130v1m
385.6164LABRIFFE Alban44FRA2:27:206:09 9.77131v1m
386.7121WILLERVAL Franck33FRAQUESNOY POUR TO2:27:236:09 9.77165sem
387.6133VANTROYS Mathieu38FRA2:27:266:09 9.77166sem
388.6351VANTROYS Thomas40FRAS/L AC VILLENEU2:27:306:09 9.76132v1m
389.6782DE RIEMAECKER Frederic43FRAOSM LOMME2:27:406:10 9.75133v1m
390.7495BOURDON Benjamin35FRA2:27:506:10 9.74167sem
391.7505LECLERCQ Michel49FRAJCPMF FLV2:27:526:10 9.74134v1m
392.6540SOUAMI Lounis31FRA2:27:536:10 9.74168sem
393.6539BOIS Antoine32FRA2:27:536:10 9.74169sem
394.6935CATTOEN Fabien47FRA2:27:586:10 9.73135v1m
395.6837THERASSE Franck44FRA2:28:046:11 9.73136v1m
396.7110DENIS Nicolas39FRA2:28:046:11 9.73170sem
397.7180GUILLON Victor23FRA2:28:056:11 9.72171sem
398.6250VANDEWALLE Matthias33BELLES GAULOIS2:28:086:11 9.72172sem
399.6997SOLERI Jean-François40FRA2:28:086:11 9.72137v1m
400.7122BONA Guy67FRASERAING RUNNERS2:28:246:11 9.704v3m
401.7059FBUSIERE Regine50FRA2:28:286:12 9.706v2f
402.7327MATAGNE Benoit43BELBOUBIET TEAM2:28:296:12 9.70138v1m
403.6406QUINTIN Jean-Jacques56FRAJE COURS A INCO2:28:316:12 9.7037v2m
404.6778LAVALLEE Johann40FRA2:28:326:12 9.69139v1m
405.7258CHRISTORY Charles32FRA2:28:376:12 9.69173sem
406.6741TARRIN Gillrs48FRA2:28:406:12 9.69140v1m
407.7050FFLORENT Gwenaelle32FRA2:28:406:12 9.6920sef
408.7408GOURANTON Alann28FRA2:28:426:12 9.68174sem
409.7535FDEWINTER Emmanuelle26BELBOUFFIOLS2:28:436:12 9.6821sef
410.6435FPERRUCHOT Elodie45FRA2:28:436:12 9.6825v1f
411.6236FTHOMAS Geneviève44BELVERTIGO2:28:486:12 9.6826v1f
412.6271CROUZET Thomas39FRA2:28:526:13 9.67175sem
413.7169BONDUELLE Thomas42FRA2:29:006:13 9.66141v1m
414.6160ROUSERE Christophe38FRA2:29:066:13 9.66176sem
415.7115LAPOTRE Sylvain48FRA2:29:076:13 9.66142v1m
416.6073HAVIER Samuel36FRAUSL JOGGING2:29:116:13 9.65177sem
417.6238RINGEVAL Julien38FRA2:29:126:13 9.65178sem
418.7504PARISI Franck42FRA2:29:136:14 9.65143v1m
419.7070FHUBERT Annabel46FRALES MOTIVES DE 2:29:146:14 9.6527v1f
420.7061FDERIEMAECKER Delphine39FRAOSM LOMME ATHLE2:29:176:14 9.6522sef
421.6363BENOIT Cedric37FRA2:29:206:14 9.64179sem
422.6964CUITOT Guillaume34FRA2:29:236:14 9.64180sem
423.6298COUTURIER Julien36FRA2:29:246:14 9.64181sem
424.6828BOUDAILLIEZ Sébastien45FRA2:29:316:14 9.63144v1m
425.6074FJUSTIN Aurélie39FRA2:29:346:14 9.6323sef
426.6119COUVREUR Nicolas38FRA2:29:356:14 9.63182sem
427.7473DURAN Nicolas41FRA2:29:536:15 9.61145v1m
428.6958LAURENT Martin32FRA2:29:556:15 9.61183sem
429.7261GUIDEZ Thomas35FRA2:29:566:15 9.60184sem
430.6953GONIN Matthieu38FRA2:30:146:16 9.59185sem
431.6720HEROUART Stéphane55FRASTEPH2:30:266:17 9.5738v2m
432.6194RUOSO Michael42BEL2:30:266:17 9.57146v1m
433.6383COUSIN Benoit35BELTORTUES MESLINO2:30:266:17 9.57186sem
434.7370ZIEGLER Valery45FRA2:30:376:17 9.56147v1m
435.7464LEROY Jessy21FRA2:30:386:17 9.56187sem
436.6470MUZAFER Oguz53BEL2:30:396:17 9.5639v2m
437.6955DE VILLERS Venceslas40FRA2:30:426:17 9.56148v1m
438.6647WARNOTTE Thomas36BELSOLVAY BRUSSELS2:30:426:17 9.56188sem
439.7376DUPONT Emmanuel41FRA2:30:526:18 9.55149v1m
440.7272ROUSSELLE Joël65BELLESBOUFFIOLLES2:31:006:18 9.545v3m
441.6934VAN MULLEM Grégory42FRA2:31:076:18 9.53150v1m
442.6233BEZIER Eric46FRA2:31:106:18 9.53151v1m
443.7431CHARIK Arkati54FRA2:31:196:19 9.5240v2m
444.6239FLEROY Bertille43FRA2:31:196:19 9.5228v1f
445.7241MORDACQ Vincent36FRA2:31:206:19 9.52189sem
446.6862FROY Geraldine37FRA2:31:256:19 9.5124sef
447.6869ROY Simon39FRA2:31:256:19 9.51190sem
448.7134FBOUCHE Stephanie38FRA2:31:316:19 9.5025sef
449.6190TROHEL Nicolas42FRA2:31:356:19 9.50152v1m
450.6307DUMOULIN Gauthier42FRAGROUPE EMPLIO2:31:446:20 9.49153v1m
451.7503QUINTILI Laurent41BELÉCLATÉS PÉRUWEL2:31:466:20 9.49154v1m
452.6003FEUTRY David452:31:476:20 9.49155v1m
453.6788FRENARD Florence40FRA2:31:516:20 9.4829v1f
454.6035MILLON Adrien35FRA2:32:056:21 9.47191sem
455.7284GOURLET Damien39FRA2:32:076:21 9.47192sem
456.6838FANDRE Sylvie53FRA2:32:136:21 9.467v2f
457.6140BRABANT Stéphane45FRA2:32:196:21 9.45156v1m
458.6005FNAVET Florence47DECATHLON ST-MA2:32:196:21 9.4530v1f
459.6117RONVEAUX Alain59FRAOCAN2:32:206:21 9.4541v2m
460.7468DARGENT Stive35BELBOUBIET TEAM2:32:206:21 9.45193sem
461.7201FCAZIER Isabelle39FRAJC DES COLLINES2:32:206:21 9.4526sef
462.7270LEMATTRE Mathieu25FRA2:32:286:22 9.45194sem
463.6737FMILLOT Sarah38FRA2:32:306:22 9.4427sef
464.6582LEJCZYK Samuel37FRA2:32:326:22 9.44195sem
465.6110SERVAIS Sebastien37BEL2:32:336:22 9.44196sem
466.6499FNOURRY Ingrid40FRA2:32:336:22 9.4431v1f
467.6196FDEQUINZE Virginie41BEL2:32:386:22 9.4332v1f
468.6455FGILLET Bérangère41BEL2:32:406:22 9.4333v1f
469.7199BECK Alexandre42FRA2:32:436:22 9.43157v1m
470.6335CORNU Thomas37FRA2:32:476:22 9.43197sem
471.6336LE FEYER Gauthier38FRA2:32:486:22 9.43198sem
472.7053FONTAINE Loic42FRA2:32:486:22 9.42158v1m
473.6999DISSAUX Armand31FRAHERLIES RANDO R2:32:496:23 9.42199sem
474.7227BEYOU François25FRA2:32:506:23 9.42200sem
475.7357BERTHE Julien31FRAONERA2:32:506:23 9.42201sem
476.6399VANNESTE Laurent45FRAUS MARQUETTE2:32:526:23 9.42159v1m
477.6014VIGNOZZI Alexandre37DECATHLON ST-MA2:32:536:23 9.42202sem
478.6052PIRES Victor45FRA2:32:576:23 9.42160v1m
479.6390DETAVERNIER Quentin25FRAJOGGANS2:33:036:23 9.41203sem
480.7244ESCARMELLE Johann41BELJAMES2:33:096:23 9.40161v1m
481.7581FHAMONIC Isabelle51BELNEUPRÉ AC2:33:106:23 9.408v2f
482.7580FLEGISA Stéphanie32BEL2:33:116:23 9.4028sef
483.6063BROOTCORNE Benjamin38BEL2:33:216:24 9.39204sem
484.6022MARTEEL Julien35FRAEUROTUNNEL2:33:246:24 9.39205sem
485.6282JAUMOTTE Benoit49BELLES APÉROS DU M2:33:256:24 9.39162v1m
486.6340DRANCOURT Benoit48FRA2:33:356:24 9.38163v1m
487.7561FHOLLE Sabrina39FRA2:33:376:25 9.3729sef
488.7476BLAIRON Benjamin32BEL/2:33:386:25 9.37206sem
489.6138KIESECOMS Pascal46BELETENGHIEN2:33:396:25 9.37164v1m
490.6865FPINABIAUX Anne-Sophie44FRA2:33:436:25 9.3734v1f
491.7333VANDERSTRICHELEN Laurent46BELJC DES COLLINES2:33:446:25 9.37165v1m
492.6368FLECHANTRE Sylvette47BEL2:33:486:25 9.3635v1f
493.7536FHEYMANS Julie38BELGAG2:33:496:25 9.3630sef
494.7219FPHILIPPE Audrey35FRA2:33:516:25 9.3631sef
495.7043DUBOIS Olivier51BELZATAK2:33:556:25 9.3642v2m
496.7003SANT Maxime32FRA2:33:586:25 9.35207sem
497.7320LEMATTE Sébastien43FRA2:34:096:26 9.34166v1m
498.6739FDEGROOTE Maggy40FRATTO2:34:106:26 9.3436v1f
499.6738DEGROOTE Nicolas33FRA2:34:106:26 9.34208sem
500.6334FPLENNEVAUX Muriel44BEL2:34:126:26 9.3437v1f
DNF: abandon; DSQ: disqualifié; Vitesse en km/h
Seite: [1] 2 3